Location: Banios
(43.0451°N, 0.2335°E)
Time: 13:27:46
(UTC+00:00)

A-11 Canister half - Pass Details

Date: 15 May 2021
Orbit: 1513 x 1686 km, 47.2° (Epoch: 14 June)

Event Time Altitude Azimuth Distance (km) Brightness Sun altitude
Rises 20:54:40 0° 295° (WNW) 4,671 12.9 -15.3°
Reaches altitude 10° 20:57:54 10° 288° (WNW) 3,698 12.0 -15.7°
Maximum altitude 21:06:20 40° 223° (SW) 2,149 9.7 -16.7°
Enters shadow 21:12:35 19° 166° (SSE) 3,131 10.1 -17.5°
Drops below altitude 10° 21:14:59 10° 158° (SSE) 3,792 - -17.8°
Sets 21:18:22 0° 151° (SSE) 4,800 - -18.2°
